Regional Weather Roundup
Issued by NWS Portland, ME

Current Version | Previous Version | Graphics & Text | Print | Product List | Glossary On
Versions: 1 2 3 4 5 6 7 8 9 10 11 12 13 14 15 16 17 18 19 20 21 22 23 24 25 26 27 28 29 30 31 32 33 34 35 36 37 38 39 40 41 42 43 44 45 46 47 48 49 50
000
ASUS41 KGYX 210210
RWRGYX
WEATHER ROUNDUP FOR MAINE AND NEW HAMPSHIRE
NATIONAL WEATHER SERVICE GRAY ME
1000 PM EDT SUN JUN 20 2021

MEZ002-005-006-010-012-015-018-020-021-024-026-027-029-210300-
MAINE

CITY           SKY/WX    TMP DP  RH WIND       PRES   REMARKS
PORTLAND       PTCLDY    68  60  75 S3        29.77R
SANFORD        CLEAR     67  63  87 CALM      29.78R
BAR HARBOR     CLEAR     63  57  81 S5        29.79R
WISCASSET      MOCLDY    69  60  73 SW5       29.79R
ROCKLAND       CLEAR     66  60  81 SW3       29.78R
FRYEBURG       PTCLDY    67  59  75 CALM      29.77R
LEWISTONAUBURN CLOUDY    69  60  73 CALM      29.77R
AUGUSTA        PTCLDY    69  58  67 CALM      29.78R
WATERVILLE     CLEAR     67  59  75 S3        29.76R
BANGOR         PTCLDY    71  60  68 S7        29.77R
GREENVILLE       N/A     66  51  58 CALM      29.78R
MILLINOCKET    CLEAR     66  59  78 CALM      29.76R
HOULTON        CLEAR     61  58  90 CALM      29.72R
PRESQUE ISLE   CLEAR     63  61  93 CALM      29.73R
FRENCHVILLE    PTCLDY    69  53  56 SW5       29.72R
CARIBOU        CLEAR     66  59  78 S3        29.71R
$$

NHZ002-005-008-009-011-012-014-210300-
NEW HAMPSHIRE

CITY           SKY/WX    TMP DP  RH WIND       PRES   REMARKS
PORTSMOUTH     CLEAR     72  60  67 S3        29.77R
ROCHESTER      CLEAR     72  63  73 CALM      29.77R
NASHUA         CLEAR     76  66  71 VRB3      29.79R
MANCHESTER     PTCLDY    78  61  55 S5        29.77R
CONCORD        CLEAR     71  57  61 CALM      29.78R
LACONIA        CLEAR     69  60  73 CALM      29.78R
PLYMOUTH       FAIR      64  61  87 CALM      29.78R
BERLIN         PTCLDY    64  57  78 CALM      29.79R
WHITEFIELD     PTCLDY    64  59  83 CALM      29.78R
JAFFREY        CLEAR     68  61  78 CALM      29.83R
KEENE          CLEAR     69  62  78 CALM      29.80R
LEBANON        CLEAR     70  57  63 SE5       29.78R
MT WASHINGTON  PTCLDY    52  48  87 SW18        N/A
$$

VTZ005-007-008-210300-
VERMONT

CITY           SKY/WX    TMP DP  RH WIND       PRES   REMARKS
ST JOHNSBURY     N/A     69  59  70 MISG      29.75R
MONTPELIER     PTCLDY    73  57  57 SW6       29.82R
BURLINGTON     PTCLDY    75  62  64 E6        29.73R
$$

MAZ007-012-024-CTZ003-RIZ002-NYZ038-NYZ072-210300-
SOUTHERN NEW ENGLAND AND NY

CITY           SKY/WX    TMP DP  RH WIND       PRES   REMARKS
BOSTON         PTCLDY    79  62  56 SW12      29.79R
WORCESTER      CLEAR     73  64  73 SW10      29.85R
NANTUCKET      CLEAR     67  64  90 SW9       29.85S
PROVIDENCE     CLEAR     73  65  75 SW8       29.83R
HARTFORD       PTCLDY    77  66  68 S10       29.80R
ALBANY         PTCLDY    73  65  75 S3        29.76R
NEW YORK CITY  PTCLDY    81  67  62 S7        29.79R
$$

ANZ081-ANZ082-ANZ150-NHZ014-MEZ023>029-210300-
COASTAL MARINE OBSERVATIONS

STATION/POSITION TIME  TEMP    WIND        PRES    WAVE
                       AIR SEA DIR/SP/G            HT/PER
                 (UTC) (F)     (DEG/KT/KT) (MB)    (FT/S)
MOUNT DESERT ROC 0200          220/  9/  9 1008.7R
ISLE OF SHOALS   0200   71     190/ 19/ 20 1007.6R
JEFFREYS LEDGE   0156      60                N/A     3/ 4
$$

.............KEY..............
   WCI - WIND CHILL
   TC  - TEMPERATURE IN CELSIUS
   VSB - VISIBILITY IN MILES
   HX  - HEAT INDEX
   FAIR- INDICATES FEW OR NO CLOUDS BELOW 12,000 FT, WITH NO
         SIGNIFICANT WEATHER AND/OR OBSTRUCTIONS TO VISIBILITY.





USA.gov is the U.S. government's official web portal to all federal, state and local government web resources and services.